Beijing, China

11:15 AM CST on May 25, 2017 (GMT +0800)
Beijing Capital

Weather History for ZBAA - April, 2017

Change the Weather History Date:

Friday, April 21, 2017

  Actual Average Record
Temperature  
Mean Temperature 58 °F -  
Max Temperature 73 °F 76 °F 89 °F (2016)
Min Temperature 44 °F 53 °F 39 °F (2003)
Degree Days  
Heating Degree Days 6    
Growing Degree Days 8 (Base 50)    
Moisture  
Dew Point 30 °F    
Average Humidity 31    
Maximum Humidity 66    
Minimum Humidity 9    
Precipitation  
Precipitation 0.00 in 0.04 in - ()
Sea Level Pressure  
Sea Level Pressure 29.97 in    
Wind  
Wind Speed 7 mph ()    
Max Wind Speed 16 mph    
Max Gust Speed 25 mph    
Visibility 17.4 miles    
Events      
Averages and records for this station are not official NWS values.
T = Trace of Precipitation, MM = Missing Value Source: Averaged Metar Reports

Daily Weather History Graph

Daily Weather History Graph

Search for Another Location

Airport or City:

Trip Planner

Search our weather history database for the weather conditions in past years. The results will help you decide how hot, cold, wet, or windy it might be!

Date:

Astronomy

Apr. 21, 2017 Rise Set
Actual Time 5:27 AM CST 6:58 PM CST
Civil Twilight 4:58 AM CST 7:26 PM CST
Nautical Twilight 4:24 AM CST 8:01 PM CST
Astronomical Twilight 3:48 AM CST 8:37 PM CST
Moon 2:22 AM CST (4/21) 1:05 PM CST (4/21)
Length of Visible Light 14h 27m
Length of Day
13h 30m
Waning Crescent, 33% of the Moon is Illuminated
Apr 21
Waning Crescent
Apr 26
New
May 3
First Quarter
May 11
Full
May 19
Last Quarter

Hourly Weather History & Observations

Time (CST) Temp. Windchill Dew Point Humidity Pressure Visibility Wind Dir Wind Speed Gust Speed Precip Events Conditions
12:00 AM 50.0 °F - 30.2 °F 47% 29.92 in - North 6.7 mph - N/A   Clear
12:30 AM 50.0 °F - 30.2 °F 47% 29.95 in - North 6.7 mph - N/A   Clear
1:00 AM 51.8 °F - 30.2 °F 44% 29.95 in - North 11.2 mph - N/A   Clear
1:30 AM 53.6 °F - 32.0 °F 44% 29.95 in - NNE 6.7 mph - N/A   Clear
2:00 AM 58 °F - 30 °F 23% 29.94 in 19 mi North 6.7 mph - -  
2:00 AM 53.6 °F - 32.0 °F 44% 29.95 in - North 11.2 mph - N/A   Clear
2:30 AM 53.6 °F - 32.0 °F 44% 29.95 in - North 13.4 mph - N/A   Clear
3:00 AM 53.6 °F - 32.0 °F 44% 29.95 in - North 13.4 mph - N/A   Clear
3:30 AM 50.0 °F - 32.0 °F 50% 29.98 in - North 6.7 mph - N/A   Clear
4:00 AM 50.0 °F - 32.0 °F 50% 29.98 in - North 8.9 mph - N/A   Clear
4:30 AM 50.0 °F - 33.8 °F 54% 29.98 in - North 8.9 mph - N/A   Clear
5:00 AM 56 °F - 31 °F 26% 29.98 in 19 mi North 4.5 mph - -  
5:00 AM 51.8 °F - 33.8 °F 50% 29.98 in - Variable 2.2 mph - N/A   Clear
5:30 AM 44.6 °F 40.8 °F 32.0 °F 61% 30.01 in - North 6.7 mph - N/A   Clear
6:00 AM 44.6 °F 40.8 °F 33.8 °F 66% 30.01 in - North 6.7 mph - N/A   Clear
6:30 AM 46.4 °F 43.0 °F 33.8 °F 62% 30.04 in - North 6.7 mph - N/A   Clear
7:00 AM 53.6 °F - 37.4 °F 54% 30.04 in - North 4.5 mph - N/A   Clear
7:30 AM 57.2 °F - 35.6 °F 44% 30.04 in - NNE 4.5 mph - N/A   Clear
8:00 AM 60 °F - 32 °F 23% 30.05 in 19 mi NNE 8.9 mph - -   Scattered Clouds
8:00 AM 60.8 °F - 35.6 °F 39% 30.04 in - North 8.9 mph - N/A   Clear
8:30 AM 62.6 °F - 35.6 °F 37% 30.06 in - North 8.9 mph - N/A   Clear
9:00 AM 64.4 °F - 35.6 °F 34% 30.06 in - North 6.7 mph - N/A   Clear
9:30 AM 64.4 °F - 32.0 °F 30% 30.04 in - NNE 15.7 mph - N/A   Clear
10:00 AM 66.2 °F - 30.2 °F 26% 30.04 in - North 13.4 mph - N/A   Clear
10:30 AM 68.0 °F - 30.2 °F 24% 30.04 in - North 13.4 mph - N/A   Clear
11:00 AM 66 °F - 25 °F 12% 30.04 in 19 mi NNE 6.7 mph - -   Scattered Clouds
11:00 AM 68.0 °F - 24.8 °F 20% 30.04 in - NE 8.9 mph 20.1 mph N/A   Clear
11:30 AM 69.8 °F - 21.2 °F 16% 30.01 in - North 11.2 mph - N/A   Clear
12:00 PM 71.6 °F - 24.8 °F 17% 30.01 in - North 11.2 mph - N/A   Clear
12:30 PM 69.8 °F - 24.8 °F 18% 29.98 in - North 8.9 mph - N/A   Clear
1:00 PM 71.6 °F - 24.8 °F 17% 29.98 in - NNW 6.7 mph 17.9 mph N/A   Clear
1:30 PM 71.6 °F - 24.8 °F 17% 29.98 in - West 6.7 mph 17.9 mph N/A   Clear
2:00 PM 69 °F - 26 °F 10% 29.97 in 19 mi NNW 4.5 mph - -   Partly Cloudy
2:00 PM 69.8 °F - 24.8 °F 18% 29.95 in - East 6.7 mph 17.9 mph N/A   Clear
2:30 PM 71.6 °F - 28.4 °F 20% 29.95 in - Variable 6.7 mph - N/A   Clear
3:00 PM 69.8 °F - 26.6 °F 20% 29.95 in - WNW 6.7 mph - N/A   Clear
3:30 PM 73.4 °F - 26.6 °F 18% 29.92 in - Variable 6.7 mph 17.9 mph N/A   Clear
4:00 PM 71.6 °F - 28.4 °F 20% 29.92 in - Variable 6.7 mph - N/A   Clear
4:30 PM 71.6 °F - 28.4 °F 20% 29.92 in - Variable 4.5 mph - N/A   Clear
5:00 PM 72 °F - 26 °F 9% 29.91 in 19 mi WNW 4.5 mph - -   Partly Cloudy
5:00 PM 71.6 °F - 26.6 °F 19% 29.89 in - Variable 4.5 mph - N/A   Clear
5:30 PM 71.6 °F - 28.4 °F 20% 29.89 in - Variable 4.5 mph - N/A   Clear
6:00 PM 71.6 °F - 26.6 °F 19% 29.89 in - Variable 4.5 mph - N/A   Clear
6:30 PM 66.2 °F - 30.2 °F 26% 29.89 in - SSE 4.5 mph - N/A   Clear
7:00 PM 62.6 °F - 30.2 °F 30% 29.89 in - Variable 2.2 mph - N/A   Clear
7:30 PM 57.2 °F - 32.0 °F 38% 29.92 in - ESE 4.5 mph - N/A   Clear
8:00 PM 65 °F - 30 °F 16% 29.94 in 14 mi SW 8.9 mph - -  
8:00 PM 64.4 °F - 28.4 °F 26% 29.92 in - South 6.7 mph - N/A   Clear
8:30 PM 64.4 °F - 30.2 °F 28% 29.92 in - SSW 6.7 mph - N/A   Clear
9:00 PM 66.2 °F - 30.2 °F 26% 29.95 in - South 8.9 mph - N/A   Clear
9:30 PM 66.2 °F - 30.2 °F 26% 29.95 in - SSW 6.7 mph - N/A   Clear
10:00 PM 64.4 °F - 32.0 °F 30% 29.95 in - SSW 11.2 mph - N/A   Clear
10:30 PM 64.4 °F - 32.0 °F 30% 29.92 in - SW 13.4 mph 24.6 mph N/A   Clear
11:00 PM 61 °F - 34 °F 24% 29.94 in 11 mi WSW 4.5 mph - -  
11:30 PM 64.4 °F - 33.8 °F 32% 29.92 in - SSW 13.4 mph - N/A   Clear